This is the latest recevied weather packets stored in our database for station/object LX0WX-13. If no packets are shown the sender has not sent any weather packets the latest 10 day(s).
| Time | Temp. | Humidity | Pressure | Rain* | Wind** | Luminosity | Snow |
|---|---|---|---|---|---|---|---|
| 1777805459 | 18.33° C | 43% | 1010 hPa | 0 mm | - | - | - |
| 1777805159 | 18.89° C | 42% | 1010.1 hPa | 0 mm | - | - | - |
| 1777804859 | 19.44° C | 40% | 1009.9 hPa | 0 mm | - | - | - |
| 1777804577 | 20° C | 40% | 1010 hPa | 0 mm | - | - | - |
| 1777804259 | 20° C | 41% | 1010.1 hPa | 0 mm | - | - | - |
| 1777803959 | 19.44° C | 41% | 1010 hPa | 0 mm | - | - | - |
| 1777803659 | 18.89° C | 39% | 1010 hPa | 0 mm | - | - | - |
| 1777803359 | 19.44° C | 39% | 1010.1 hPa | 0 mm | - | - | - |
| 1777803059 | 20° C | 39% | 1009.9 hPa | 0 mm | - | - | - |
| 1777802759 | 20° C | 39% | 1010 hPa | 0 mm | - | - | - |
| 1777802459 | 20° C | 39% | 1009.9 hPa | 0 mm | - | - | - |
| 1777802159 | 20° C | 40% | 1009.8 hPa | 0 mm | - | - | - |
| 1777801859 | 20° C | 39% | 1010 hPa | 0 mm | - | - | - |
| 1777801559 | 19.44° C | 39% | 1009.9 hPa | 0 mm | - | - | - |
| 1777801259 | 19.44° C | 39% | 1010 hPa | 0 mm | - | - | - |
| 1777800959 | 20° C | 39% | 1010 hPa | 0 mm | - | - | - |
| 1777800659 | 19.44° C | 40% | 1009.9 hPa | 0 mm | - | - | - |
| 1777800359 | 19.44° C | 40% | 1010.1 hPa | 0 mm | - | - | - |
| 1777800059 | 19.44° C | 40% | 1009.9 hPa | 0 mm | - | - | - |
| 1777799759 | 18.89° C | 39% | 1009.8 hPa | 0 mm | - | - | - |
| 1777799459 | 19.44° C | 39% | 1009.9 hPa | 0 mm | - | - | - |
| 1777799159 | 19.44° C | 38% | 1009.7 hPa | 0 mm | - | - | - |
| 1777798859 | 20° C | 39% | 1009.9 hPa | 0 mm | - | - | - |
| 1777798559 | 20° C | 40% | 1009.9 hPa | 0 mm | - | - | - |
| 1777798259 | 19.44° C | 40% | 1009.9 hPa | 0 mm | - | - | - |
* Rain latest hour (hover to see other rain measurements)
** Current wind speed in m/s (hover to see current wind gust speed)